Eureka, NV

3:13 AM PDT on June 29, 2017 (GMT -0700)
Eureka

Weather History for KP68 - November, 2012

Change the Weather History Date:

Tuesday, November 13, 2012

  Actual Average Record
Temperature  
Mean Temperature 34 °F 36 °F  
Max Temperature 51 °F 51 °F 69 °F (1999)
Min Temperature 17 °F 21 °F 3 °F (2000)
Degree Days  
Heating Degree Days 31 29  
Month to date heating degree days 335 351  
Since 1 July heating degree days 892 1198  
Cooling Degree Days 0 0  
Month to date cooling degree days 0 0  
Year to date cooling degree days 529 288  
Moisture  
Dew Point 21 °F    
Average Humidity 58    
Maximum Humidity 84    
Minimum Humidity 32    
Precipitation  
Precipitation 0.00 in 0.03 in 0.49 in (2001)
Month to date precipitation 0.23 0.39  
Year to date precipitation 5.90 8.00  
Sea Level Pressure  
Sea Level Pressure 30.27 in    
Wind  
Wind Speed 5 mph (SSW)    
Max Wind Speed 13 mph    
Max Gust Speed 14 mph    
T = Trace of Precipitation, MM = Missing Value Source: NWS Daily Summary

Daily Weather History Graph

Daily Weather History Graph

Search for Another Location

Airport or City:

Trip Planner

Search our weather history database for the weather conditions in past years. The results will help you decide how hot, cold, wet, or windy it might be!

Date:

Astronomy

Nov. 13, 2012 Rise Set
Actual Time 6:26 AM PST 4:29 PM PST
Civil Twilight 5:57 AM PST 4:58 PM PST
Nautical Twilight 5:25 AM PST 5:30 PM PST
Astronomical Twilight 4:53 AM PST 6:02 PM PST
Moon 6:09 AM PST (11/13) 4:26 PM PST (11/13)
Length of Visible Light 11h 00m
Length of Day
10h 03m
Waning Crescent, 0% of the Moon is Illuminated
Nov 13
Waning Crescent
Nov 13
New
Nov 20
First Quarter
Nov 28
Full
Dec 6
Last Quarter

Hourly Weather History & Observations

Time (PST) Temp. Windchill Dew Point Humidity Pressure Visibility Wind Dir Wind Speed Gust Speed Precip Events Conditions
12:53 AM 23.0 °F 13.9 °F 18.0 °F 81% 30.33 in - South 8.1 mph - N/A   Unknown
1:53 AM 23.0 °F 14.7 °F 17.1 °F 78% 30.32 in - SSW 6.9 mph - N/A   Unknown
2:53 AM 19.0 °F 12.3 °F 14.0 °F 81% 30.33 in - West 4.6 mph - N/A   Unknown
3:53 AM 21.0 °F 14.6 °F 16.0 °F 81% 30.32 in - SSW 4.6 mph - N/A   Unknown
4:53 AM 21.0 °F 12.4 °F 16.0 °F 81% 30.35 in - SSW 6.9 mph - N/A   Unknown
5:53 AM 18.0 °F 11.1 °F 14.0 °F 84% 30.37 in - SW 4.6 mph - N/A   Unknown
6:53 AM 19.0 °F 11.1 °F 14.0 °F 81% 30.39 in - SSW 5.8 mph - N/A   Unknown
7:53 AM 25.0 °F 18.1 °F 18.0 °F 75% 30.36 in - SSW 5.8 mph - N/A   Unknown
8:53 AM 35.1 °F - 21.0 °F 57% 30.33 in - Calm Calm - N/A   Unknown
9:53 AM 37.9 °F - 21.0 °F 51% 30.32 in - Calm Calm - N/A   Unknown
10:53 AM 46.9 °F - 21.9 °F 37% 30.26 in - North 4.6 mph - N/A   Unknown
11:53 AM 46.9 °F - 25.0 °F 42% 30.24 in - Calm Calm - N/A   Unknown
12:53 PM 50.0 °F - 25.0 °F 38% 30.21 in - Calm Calm - N/A   Unknown
1:53 PM 51.1 °F - 24.1 °F 35% 30.19 in - Calm Calm - N/A   Unknown
2:53 PM 51.1 °F - 23.0 °F 33% 30.20 in - Calm Calm - N/A   Unknown
3:53 PM 48.0 °F - 26.1 °F 42% 30.20 in - SE 8.1 mph - N/A   Unknown
4:53 PM 42.1 °F 37.7 °F 26.1 °F 53% 30.21 in - South 6.9 mph - N/A   Unknown
5:53 PM 37.9 °F 32.1 °F 25.0 °F 60% 30.26 in - South 8.1 mph - N/A   Unknown
6:53 PM 36.0 °F 30.3 °F 25.0 °F 64% 30.26 in - SSE 6.9 mph - N/A   Unknown
7:53 PM 32.0 °F 27.5 °F 24.1 °F 73% 30.26 in - South 4.6 mph - N/A   Unknown
8:53 PM 35.1 °F 29.3 °F 23.0 °F 61% 30.22 in - SSW 6.9 mph - N/A   Unknown
9:53 PM 33.1 °F 26.9 °F 24.1 °F 70% 30.21 in - SSW 6.9 mph - N/A   Unknown
10:53 PM 30.9 °F 23.5 °F 24.1 °F 76% 30.19 in - South 8.1 mph - N/A   Unknown
11:53 PM 33.1 °F 26.1 °F 23.0 °F 66% 30.19 in - SSW 8.1 mph - N/A   Unknown